TimeCDT,TemperatureF,Dew PointF,Humidity,Sea Level PressureIn,VisibilityMPH,Wind Direction,Wind SpeedMPH,Gust SpeedMPH,PrecipitationIn,Events,Conditions,WindDirDegrees,DateUTC
12:15 AM,39.2,33.8,81,30.34,10.0,ESE,8.1,-,N/A,,Clear,110,2013-04-22 05:15:00
12:35 AM,39.4,33.4,79,30.34,10.0,ESE,8.1,-,N/A,,Clear,110,2013-04-22 05:35:00
12:55 AM,39.2,33.1,79,30.33,10.0,ESE,8.1,-,N/A,,Clear,110,2013-04-22 05:55:00
1:15 AM,39.2,33.1,79,30.33,10.0,ESE,6.9,-,N/A,,Clear,120,2013-04-22 06:15:00
1:35 AM,39.0,32.9,79,30.32,10.0,ESE,6.9,-,N/A,,Clear,120,2013-04-22 06:35:00
1:55 AM,39.2,32.9,78,30.32,10.0,ESE,9.2,-,N/A,,Clear,120,2013-04-22 06:55:00
2:15 AM,38.7,32.9,80,30.31,10.0,ESE,8.1,-,N/A,,Clear,110,2013-04-22 07:15:00
2:35 AM,38.5,32.9,80,30.31,10.0,ESE,6.9,-,N/A,,Clear,120,2013-04-22 07:35:00
2:55 AM,37.8,32.7,82,30.31,10.0,ESE,5.8,-,N/A,,Clear,110,2013-04-22 07:55:00
3:15 AM,36.5,32.5,86,30.32,10.0,ESE,5.8,-,N/A,,Clear,110,2013-04-22 08:15:00
3:35 AM,36.5,32.2,84,30.31,10.0,ESE,4.6,-,N/A,,Clear,110,2013-04-22 08:35:00
3:55 AM,37.6,32.2,81,30.31,10.0,ESE,6.9,-,N/A,,Clear,120,2013-04-22 08:55:00
4:35 AM,35.6,32.0,87,30.31,10.0,Calm,Calm,-,N/A,,Clear,0,2013-04-22 09:35:00
4:55 AM,35.6,32.4,88,30.31,10.0,East,4.6,-,N/A,,Clear,100,2013-04-22 09:55:00
5:15 AM,34.7,31.8,89,30.30,10.0,ESE,4.6,-,N/A,,Clear,110,2013-04-22 10:15:00
5:35 AM,35.1,32.0,89,30.30,10.0,ESE,5.8,-,N/A,,Clear,120,2013-04-22 10:35:00
5:55 AM,35.1,32.0,89,30.30,10.0,ESE,5.8,-,N/A,,Clear,110,2013-04-22 10:55:00
6:15 AM,35.2,31.8,87,30.30,10.0,ESE,5.8,-,N/A,,Clear,120,2013-04-22 11:15:00
6:35 AM,35.8,32.0,86,30.29,10.0,ESE,8.1,-,N/A,,Clear,110,2013-04-22 11:35:00
6:55 AM,37.2,32.0,81,30.29,10.0,ESE,6.9,-,N/A,,Clear,120,2013-04-22 11:55:00
7:15 AM,38.5,32.9,80,30.29,10.0,ESE,6.9,-,N/A,,Clear,110,2013-04-22 12:15:00
7:35 AM,40.3,33.3,76,30.29,10.0,ESE,6.9,-,N/A,,Clear,120,2013-04-22 12:35:00
7:55 AM,42.4,33.6,71,30.29,10.0,SE,6.9,-,N/A,,Clear,130,2013-04-22 12:55:00
8:15 AM,45.0,34.0,65,30.29,10.0,ESE,8.1,-,N/A,,Clear,120,2013-04-22 13:15:00
8:35 AM,46.4,34.2,62,30.29,10.0,SE,9.2,-,N/A,,Clear,130,2013-04-22 13:35:00
8:55 AM,48.2,35.1,60,30.29,10.0,SE,10.4,-,N/A,,Clear,130,2013-04-22 13:55:00
9:15 AM,50.4,36.1,58,30.28,10.0,SE,9.2,-,N/A,,Clear,140,2013-04-22 14:15:00
9:35 AM,52.5,35.8,53,30.28,10.0,SE,9.2,-,N/A,,Clear,140,2013-04-22 14:35:00
9:55 AM,54.0,36.9,52,30.29,10.0,SSE,8.1,-,N/A,,Clear,160,2013-04-22 14:55:00
10:15 AM,55.9,36.1,47,30.28,10.0,SSE,8.1,-,N/A,,Clear,160,2013-04-22 15:15:00
10:35 AM,57.2,36.0,45,30.28,10.0,South,6.9,-,N/A,,Clear,180,2013-04-22 15:35:00
10:55 AM,58.1,35.8,43,30.27,10.0,South,8.1,-,N/A,,Clear,190,2013-04-22 15:55:00
11:15 AM,59.0,36.3,43,30.27,10.0,South,10.4,-,N/A,,Clear,180,2013-04-22 16:15:00
11:35 AM,60.1,37.2,43,30.26,10.0,SE,8.1,-,N/A,,Clear,140,2013-04-22 16:35:00
11:55 AM,60.3,36.3,41,30.25,10.0,SE,8.1,-,N/A,,Clear,140,2013-04-22 16:55:00
12:15 PM,60.1,35.6,40,30.24,10.0,SSE,6.9,-,N/A,,Clear,150,2013-04-22 17:15:00
12:35 PM,60.4,35.6,40,30.23,10.0,SE,8.1,-,N/A,,Clear,140,2013-04-22 17:35:00
12:55 PM,61.0,34.0,36,30.23,10.0,ESE,5.8,-,N/A,,Clear,120,2013-04-22 17:55:00
1:15 PM,61.7,36.1,39,30.22,10.0,SE,5.8,-,N/A,,Clear,130,2013-04-22 18:15:00
1:35 PM,62.4,36.0,37,30.21,10.0,SE,9.2,-,N/A,,Clear,140,2013-04-22 18:35:00
1:55 PM,63.0,37.6,39,30.20,10.0,SSE,4.6,-,N/A,,Clear,160,2013-04-22 18:55:00
2:15 PM,63.0,36.1,37,30.20,10.0,ESE,4.6,-,N/A,,Clear,120,2013-04-22 19:15:00
2:35 PM,63.9,36.3,36,30.18,10.0,ESE,5.8,-,N/A,,Clear,110,2013-04-22 19:35:00
2:55 PM,64.4,36.0,35,30.17,10.0,ESE,9.2,-,N/A,,Clear,110,2013-04-22 19:55:00
3:15 PM,64.4,36.5,36,30.15,10.0,ESE,13.8,18.4,N/A,,Clear,110,2013-04-22 20:15:00
3:35 PM,64.6,34.3,32,30.14,10.0,ESE,11.5,19.6,N/A,,Clear,120,2013-04-22 20:35:00
3:55 PM,64.6,34.5,33,30.13,10.0,ESE,13.8,-,N/A,,Clear,120,2013-04-22 20:55:00
4:15 PM,64.4,35.4,34,30.12,10.0,SE,13.8,-,N/A,,Clear,130,2013-04-22 21:15:00
4:35 PM,64.9,36.1,34,30.12,10.0,SE,15.0,-,N/A,,Clear,140,2013-04-22 21:35:00
4:55 PM,64.9,35.6,34,30.11,10.0,SE,11.5,17.3,N/A,,Clear,130,2013-04-22 21:55:00
5:15 PM,64.8,35.4,34,30.10,10.0,SE,13.8,-,N/A,,Clear,140,2013-04-22 22:15:00
5:35 PM,64.4,35.6,34,30.09,10.0,SE,12.7,17.3,N/A,,Clear,140,2013-04-22 22:35:00
5:55 PM,63.9,35.1,34,30.08,10.0,SE,15.0,-,N/A,,Clear,130,2013-04-22 22:55:00
6:15 PM,63.5,34.7,34,30.08,10.0,SE,11.5,-,N/A,,Clear,140,2013-04-22 23:15:00
6:35 PM,62.8,36.3,37,30.08,10.0,SE,9.2,-,N/A,,Clear,130,2013-04-22 23:35:00
6:55 PM,61.7,38.1,42,30.08,10.0,SE,6.9,-,N/A,,Clear,130,2013-04-22 23:55:00
7:15 PM,59.4,38.3,46,30.08,10.0,SE,4.6,-,N/A,,Clear,130,2013-04-23 00:15:00
7:35 PM,58.3,39.4,49,30.08,10.0,ESE,5.8,-,N/A,,Clear,120,2013-04-23 00:35:00
7:55 PM,57.4,40.1,53,30.08,10.0,ESE,4.6,-,N/A,,Clear,120,2013-04-23 00:55:00
8:15 PM,55.9,40.5,56,30.09,10.0,ESE,5.8,-,N/A,,Clear,120,2013-04-23 01:15:00
8:35 PM,54.3,41.0,61,30.09,10.0,ESE,5.8,-,N/A,,Clear,120,2013-04-23 01:35:00
8:55 PM,53.6,40.6,62,30.09,10.0,ESE,5.8,-,N/A,,Clear,120,2013-04-23 01:55:00
9:15 PM,53.6,40.1,60,30.09,10.0,ESE,6.9,-,N/A,,Clear,120,2013-04-23 02:15:00
9:35 PM,53.1,40.1,61,30.09,10.0,ESE,6.9,-,N/A,,Clear,120,2013-04-23 02:35:00
9:55 PM,52.5,40.1,63,30.09,10.0,ESE,8.1,-,N/A,,Clear,120,2013-04-23 02:55:00
10:15 PM,51.8,40.1,64,30.08,10.0,ESE,6.9,-,N/A,,Clear,120,2013-04-23 03:15:00
10:35 PM,50.9,39.7,66,30.08,10.0,ESE,6.9,-,N/A,,Clear,120,2013-04-23 03:35:00
10:55 PM,50.9,39.6,65,30.08,10.0,SE,5.8,-,N/A,,Clear,130,2013-04-23 03:55:00
11:15 PM,50.0,39.4,67,30.07,10.0,SE,4.6,-,N/A,,Clear,130,2013-04-23 04:15:00
11:35 PM,50.4,39.2,66,30.07,10.0,ESE,5.8,-,N/A,,Clear,120,2013-04-23 04:35:00
11:55 PM,49.8,39.4,67,30.07,10.0,ESE,5.8,-,N/A,,Scattered Clouds,120,2013-04-23 04:55:00